Reflectivity
-20 -20 -20 -20 -20 -20 -20 -20 -20 -20 -20 -20 -20 -20 -20 -20 -20 -20 -20 -20 -20 -20 -20 -20 -20 -20 -20 -20 -20 -20 -20 -20 -20 -20 -20 -20 -20 -20 -20 -20 -20 -20 -20 -20 -20 -20 -20 -20 -20
-20 -20 -20 -20 -20 -20 -20 -20 -20 -20 -20 -20 -20 -20 -20 -20 -20 -20 -20 -20 -20 -20 -20 -20 -20 -20 -20 -20 -20 -20 -20 -20 -20 -20 -20 -20 -20 -20 -20 -20 -20 -20 -20 -20 -20 -20 -20 -20 -20
-20 -20 -20 -20 -20 -20 -20 -20 -20 -20 -20 -20 -20 -20 -20 -20 -20 -20 -20 -20 -20 -20 -20 -20 -20 -20 -20 -20 -20 -20 -20 -20 -20 -20 -20 -20 -20 -20 -20 -20 -20 -20 -20 -20 -20 -20 -20 -20 -20
-20 -20 -20 -20 -20 -20 -20 -20 -20 -20 -20 -20 -20 -20 -20 -20 -20 -20 -20 -20 -20 -20 -20 -20 -20 -20 -20 -20 -20 -20 -20 -20 -20 -20 -20 -20 -20 -20 -20 -20 -20 -20 -20 -20 -20 -20 -20 -20 -20
-20 -20 -20 -20 -20 -20 -20 -20 -20 -20 -20 -20 -20 -20 -20 -20 -20 -20 -20 -20 -20 -20 -20 -20 -20 -20 -20 -20 -20 -20 -20 -20 -20 -20 -20 -20 -20 -20 -20 -20 -20 -20 -20 -20 -20 -20 -20 -20 -20
-20 -20 -20 -20 -20 -20 -20 -20 -20 -20 -20 -20 -20 -20 -20 -20 -20 -20 -20 -20 -20 -20 -20 -20 -20 -20 -20 -20 -20 -20 -20 -20 -20 -20 -20 -20 -20 -20 -20 -20 -20 -20 -20 -20 -18 -20 -20 -20 -20
-20 -20 -20 -20 -20 -20 -20 -20 -20 -20 -20 -20 -20 -20 -20 -20 -20 -20 -20 -20 -20 -20 -20 -20 -20 -20 -20 -20 -20 -20 -20 -20 -20 -20 -20 -20 -20 -20 -20 -20 -20 -20 -20 -20 -20 -20 -20 -20 -20
-20 -20 -20 -20 -20 -20 -20 -20 -20 -20 -20 -20 -20 -20 -20 -20 -20 -20 -20 -20 -20 -20 -20 -20 -20 -20 -20 -20 -20 -20 -20 -20 -20 -20 -20 -20 -20 -20 -20 -20 -20 -20 -20 -20 -20 -20 -20 -20 -20
-20 -20 -20 -20 -20 -20 -20 -20 -20 -20 -20 -20 -20 -20 -20 -20 -20 -20 -20 -20 -20 -20 -20 -20 -20 -20 -20 -20 -20 -20 -20 -20 -20 -20 -20 -20 -20 -20 -20 -20 -20 -20 -20 -20 -20 -20 -20 -20 -20
-20 -20 -20 -20 -20 -20 -20 -20 -20 -20 -20 -20 -20 -20 -20 -20 -20 -20 -20 -20 -20 -20 -20 -20 -20 -20 -20 -20 -20 -20 -20 -20 -20 -20 -20 -20 -20 -20 -20 -20 -20 -20 -20 -20 -20 -20 -20 -20 -20
-20 -20 -20 -20 -20 -20 -20 -20 -20 -20 -20 -20 -20 -20 -20 -20 -20 -20 -20 -20 -20 -20 -20 -20 -20 -20 -20 -20 -20 -20 -20 -20 -20 -20 -20 -20 -20 -20 -20 -20 -20 -20 -20 -20 -20 -20 -20 -20 -20
-20 -20 -20 -20 -20 -20 -20 -20 -20 -20 -20 -20 -20 -20 -20 -20 -20 -20 -20 -20 -20 -20 -20 -20 -20 -20 -20 -20 -20 -20 -20 -20 -20 -20 -20 -20 -20 -20 -20 -20 -20 -20 -20 -20 -20 -20 -20 -20 -20
-20 -20 -20 -20 -20 -20 -20 -20 -20 -20 -20 -20 -20 -20 -20 -20 -20 -20 -20 -20 -20 -20 -20 -20 -20 -20 -20 -20 -20 -20 -20 -20 -20 -20 -20 -20 -20 -20 -20 -20 -20 -20 -20 -20 -20 -20 -20 -20 -20
-20 -20 -20 -20 -20 -20 -20 -20 -20 -20 -20 -20 -20 -20 -20 -20 -20 -20 -20 -20 -20 -20 -20 -20 -20 -20 -20 -20 -20 -20 -20 -20 -20 -20 -20 -20 -20 -20 -20 -20 -20 -20 -20 -20 -20 -20 -20 -20 -20
-20 -20 -20 -20 -20 -20 -20 -20 -20 -20 -20 -20 -20 -20 -20 -20 -20 -20 -20 -20 -20 -20 -20 -20 -20 -20 -20 -20 -20 -20 -20 -20 -20 -20 -20 -20 -20 -20 -20 -20 -20 -20 -20 -20 -20 -20 -5 -5 -20
-20 -20 -20 -20 -20 -20 -20 -20 -20 -20 -20 -20 -20 -20 -20 -20 -20 -20 -20 -20 -20 -20 -20 -20 -20 -20 -20 -20 -20 -20 -20 -20 -20 -20 -20 -20 -20 -20 -20 -20 -20 -20 -20 -20 -11 -3 -16 -15 -2
-20 -20 -20 -20 -20 -20 -20 -20 -20 -20 -20 -20 -20 -20 -20 -20 -20 -20 -20 -20 -20 -20 -20 -20 -20 -20 -20 -20 -20 -20 -20 -20 -20 -20 -20 -20 -20 -20 -20 -20 -20 -20 -20 -20 -18 -8 -20 3 -12
-20 -20 -20 -20 -20 -20 -20 -20 -20 -20 -20 -20 -20 -20 -20 -20 -20 -20 -20 -20 -20 -20 -20 -20 -20 -20 -20 -20 -20 -20 -20 -20 -20 -20 -20 -20 -20 -20 -20 -20 -20 -20 -20 -20 -20 -11 -15 -20 -5
-20 -20 -20 -20 -20 -20 -20 -20 -20 -20 -20 -20 -20 -20 -20 -20 -20 -20 -20 -20 -20 -20 -20 -20 -20 -20 -20 -20 -20 -20 -20 -20 -20 -20 -20 -20 -20 -20 -20 -20 -20 -20 -15 -20 -1 3 -5 -12 -6
-20 -20 -20 -20 -20 -20 -20 -20 -20 -20 -20 -20 -20 -20 -20 -20 -20 -20 -20 -20 -20 -20 -20 -20 -20 -20 -20 -20 -20 -20 -20 -20 -20 -20 -20 -20 -20 -20 -20 -20 -20 -18 -20 -10 4 -16 8 10 -5
-20 -20 -20 -20 -20 -20 -20 -20 -20 -20 -20 -20 -20 -20 -20 -20 -20 -20 -20 -20 -20 -20 -20 -20 -20 -20 -20 -20 -20 -20 -20 -20 -20 -20 -20 -20 -20 -20 -20 -20 -20 -20 -20 -12 -12 9 13 3 -16
-20 -20 -20 -20 -20 -20 -20 -20 -20 -20 -20 -20 -20 -20 -20 -20 -20 -20 -20 -20 -20 -20 -20 -20 -20 -20 -20 -20 -20 -20 -20 -20 -20 -20 -20 -20 -20 -20 -20 -20 -20 -19 -20 -20 -13 -3 8 3 -9
-19 -20 -20 -20 -20 -20 -20 -20 -20 -20 -20 -20 -20 -20 -20 -20 -20 -20 -20 -20 -20 -20 -20 -20 -20 -20 -20 -20 -20 -20 -20 -20 -20 -20 -20 -20 -20 -20 -20 -20 -20 -20 -20 -20 -3 -20 7 9 2
-7 -20 -20 -20 -20 -20 -20 -20 -20 -20 -20 -20 -20 -20 -20 -20 -20 -20 -20 -20 -20 -20 -20 -20 -20 -20 -20 -20 -20 -20 -20 -20 -20 -20 -20 -20 -20 -20 -20 -20 -20 -20 -20 -20 -20 -6 2 3 8
-20 -20 -20 -14 -20 -20 -20 -20 -20 -15 -20 -20 -20 -20 -20 -20 -20 -20 -20 -20 -20 -20 -20 -20 -20 -20 -20 -20 -20 -20 -20 -20 -20 -20 -20 -20 -20 -20 -20 -20 -20 -20 -20 -20 -8 4 6 8 5
2 -3 9 7 -20 -20 -20 -20 -16 -17 -20 -20 -20 -20 -20 -20 -20 -20 -20 -20 -20 -20 -20 -20 -20 -20 -20 -20 -20 -20 -20 -20 -20 -20 -20 -20 -20 -20 -20 -20 -20 -20 -20 -20 -20 3 10 -10 -10
-17 1 -1 -5 -20 -20 -19 -20 -20 -20 -20 -20 -20 -20 -20 -20 -20 -20 -20 -20 -20 -20 -20 -20 -20 -20 -20 -20 -20 -20 -20 -20 -20 -20 -20 -20 -20 -20 -20 -20 -20 -20 -20 -20 -5 10 -3 -19 1
17 12 32 -16 -20 -20 -20 -18 14 -20 -20 -20 -20 -20 -20 -20 -20 -20 -20 -20 -20 -20 -20 -20 -20 -20 -20 -20 -20 -20 -20 -20 -20 -20 -20 -20 -20 -20 -20 -20 -20 -20 -20 -20 0 -1 -20 -14 -5
12 -20 -17 -19 -20 -19 -20 -20 5 -20 -20 -20 -20 -20 -20 -20 -20 -20 -20 -20 -20 -20 -20 -20 -20 -20 -20 -20 -20 -20 -20 -20 -20 -20 -20 -20 -20 -20 -20 -20 -20 -20 -20 -15 -17 -4 -16 -0 -13
-13 9 -20 6 24 -2 -20 -18 6 -20 -20 -20 -20 -20 -20 -20 -20 -20 -20 -20 -20 -20 -20 -20 -20 -20 -20 -20 -20 -20 -20 -20 -20 -20 -20 -20 -20 -20 -20 -20 -20 -20 -20 -19 -20 -20 -15 -8 1
Wind_Speed
7 9 4 3 5 7 1 0 1 4 3 3 2 4 7 4 3 3 1 5 6 5 4 4 10 11 13 13 13 14 16 17 19 20 20 20 20 21 21 20 20 20 20 19 19 19 20 21 21
6 4 3 3 6 3 4 3 5 5 7 10 9 5 6 3 4 7 5 4 4 5 4 3 9 9 11 13 12 13 15 16 17 19 20 21 20 20 21 20 20 20 19 20 19 20 20 21 21
7 3 4 6 4 5 5 5 5 5 11 5 5 5 5 7 7 7 6 8 5 6 4 5 10 9 9 12 11 12 14 14 15 17 19 21 21 20 22 20 22 21 20 19 18 19 19 20 20
3 4 6 6 4 4 6 8 6 8 2 6 6 8 4 4 4 8 9 7 7 5 4 7 9 10 10 11 12 12 14 14 14 15 17 20 20 20 22 22 22 21 21 19 18 18 18 20 20
5 4 5 3 2 2 1 5 7 4 4 3 2 4 3 4 13 13 10 8 9 4 3 5 10 10 10 12 12 12 13 14 13 13 15 18 19 20 21 22 20 20 20 20 19 18 19 22 22
5 4 4 3 3 1 3 6 6 3 3 4 6 5 2 5 11 8 8 8 7 7 4 5 10 11 11 13 12 12 13 15 13 13 14 17 19 19 21 21 20 20 19 20 20 20 21 22 22
6 5 2 3 5 2 5 5 5 5 5 1 8 5 3 6 7 8 8 7 6 6 5 4 5 8 12 13 12 12 14 16 14 13 14 16 17 17 20 20 20 20 21 20 21 21 21 22 22
6 6 4 3 4 3 6 4 5 6 3 6 5 6 6 8 7 7 7 6 6 5 5 4 4 5 5 5 12 11 13 15 12 12 13 14 13 16 19 21 21 23 23 22 22 21 21 20 20
4 6 2 5 7 4 6 5 4 4 7 3 3 5 6 10 9 7 5 4 4 3 3 3 4 5 4 4 7 8 11 14 10 11 14 8 4 6 10 19 22 22 22 22 20 20 20 20 18
7 5 4 1 5 6 5 5 7 5 3 6 6 8 9 11 8 9 7 6 5 4 2 1 2 4 3 3 5 5 6 4 4 5 6 4 5 8 12 15 19 20 19 20 18 19 19 15 7
2 3 2 5 5 8 8 5 4 11 1 6 13 9 8 5 6 7 6 6 7 5 3 2 2 3 4 5 3 3 3 3 3 6 6 5 4 6 4 4 4 5 14 6 9 8 6 8 7
6 4 3 5 5 7 7 6 6 1 6 9 8 9 7 7 9 9 8 8 8 6 6 3 2 2 4 3 4 3 3 3 3 4 5 4 4 4 4 3 5 5 5 8 7 6 9 9 10
5 3 5 5 9 7 7 4 7 3 8 9 8 8 9 7 7 5 8 7 7 7 5 3 2 3 5 6 4 4 4 4 3 4 5 4 4 4 4 4 5 4 6 6 7 7 8 9 10
3 6 5 3 5 4 9 4 5 4 7 8 9 9 8 10 9 7 7 7 7 7 6 4 3 4 6 5 5 4 4 4 4 4 4 5 3 4 4 4 5 5 6 6 7 8 8 8 9
3 6 4 1 3 4 9 1 5 10 9 10 9 8 6 8 9 10 11 9 9 6 7 6 5 5 7 5 4 4 4 4 4 4 5 6 5 5 5 4 5 6 7 8 7 10 10 11 10
5 5 2 4 6 5 2 5 5 8 13 11 10 7 6 7 8 8 10 9 8 8 7 4 5 6 6 5 4 4 5 4 4 4 4 6 6 5 5 5 6 7 7 7 9 9 8 9 10
4 4 6 3 9 6 5 3 7 6 10 10 9 8 7 6 4 6 8 8 8 8 7 6 6 6 6 5 4 5 6 4 3 3 4 6 6 6 5 6 7 9 7 9 8 9 11 9 9
8 5 5 6 7 5 5 6 8 9 9 12 10 9 7 8 8 8 8 7 7 7 6 7 5 6 4 3 3 4 5 4 3 3 3 6 4 8 6 7 8 8 9 9 11 11 10 9 10
5 3 5 3 4 5 8 4 11 11 5 9 9 8 8 9 5 6 6 7 7 6 6 6 6 3 3 3 2 3 3 2 2 4 6 6 5 7 8 7 8 9 10 10 12 10 11 9 9
4 2 5 2 3 5 3 11 7 11 18 16 11 9 9 7 8 7 7 6 5 7 6 7 6 6 3 2 1 2 1 2 1 4 6 5 7 9 10 9 9 12 10 12 11 11 9 5 9
13 4 3 4 3 3 2 6 5 8 7 6 7 7 7 13 15 11 10 6 7 7 7 7 6 6 4 3 2 4 4 2 3 4 7 7 8 10 9 9 8 11 9 8 10 10 12 10 9
10 5 6 7 6 4 5 6 5 5 13 12 13 9 9 10 11 11 9 7 6 5 7 7 7 5 5 3 5 6 2 2 3 3 4 6 8 9 9 9 9 10 8 11 9 9 10 10 11
7 9 5 4 4 3 1 2 7 3 5 12 14 9 10 13 16 13 10 7 6 7 7 7 6 6 4 5 6 4 3 2 2 3 6 7 8 9 9 10 10 10 8 9 11 10 10 8 8
8 8 8 6 3 3 6 6 7 4 7 6 6 9 11 12 12 11 8 9 7 6 7 6 6 5 5 6 6 6 4 2 4 5 5 6 6 7 10 11 9 9 9 10 9 10 10 9 9
7 7 4 6 5 8 2 3 10 6 8 8 19 12 14 15 15 14 12 9 9 8 7 6 6 5 4 5 7 6 3 2 3 4 4 6 7 7 10 11 10 9 10 10 11 11 10 10 9
2 3 6 7 3 5 3 5 7 4 7 7 9 13 16 16 14 14 11 10 9 8 6 7 6 5 5 5 7 4 4 3 3 3 3 4 4 6 10 10 11 11 11 11 12 8 9 11 9
2 4 6 3 2 3 3 6 8 5 9 9 14 17 16 15 15 14 10 9 8 7 7 7 7 6 5 6 5 5 5 5 4 5 4 4 5 7 10 10 11 13 12 12 13 8 11 11 10
5 2 2 3 1 4 5 4 6 2 2 7 12 15 14 14 14 12 10 9 5 7 6 6 5 7 5 6 4 3 5 5 5 5 7 6 6 7 10 10 11 13 13 12 13 10 12 12 10
3 3 5 5 5 3 2 7 3 4 5 7 8 11 17 16 14 12 9 7 7 6 6 6 6 7 6 5 4 5 5 6 6 6 6 6 6 7 10 10 11 12 13 13 13 14 14 14 13
3 4 5 4 3 2 4 8 4 6 1 9 9 11 11 12 12 11 11 10 8 7 6 6 7 6 4 4 4 5 5 6 6 6 6 7 7 8 9 10 10 12 14 14 14 15 14 14 15
Wind_Direction
120 152 121 61 54 63 335 250 244 160 105 331 75 126 121 44 48 167 104 123 146 115 91 44 49 37 32 36 30 27 28 28 29 26 26 23 21 20 19 16 14 11 9 9 8 6 7 2 359
152 149 38 81 82 66 263 228 206 183 156 150 108 110 47 74 86 116 115 175 153 124 87 37 41 48 27 36 31 31 28 29 29 29 26 24 20 20 17 12 11 8 7 6 5 8 4 0 358
156 118 87 91 107 178 199 201 180 122 153 173 109 55 107 120 108 141 136 158 158 97 56 14 34 37 33 29 31 34 31 29 28 29 26 25 21 19 15 11 8 2 2 3 4 5 3 359 358
118 18 34 89 197 232 194 177 150 135 96 53 95 67 56 353 110 139 146 151 120 108 42 43 45 33 23 28 27 33 29 27 24 28 25 23 22 17 12 11 3 2 357 356 357 358 2 357 354
46 56 55 67 276 311 20 141 138 119 92 89 88 122 55 18 116 138 154 149 120 129 79 47 60 45 36 33 22 26 30 22 20 25 23 22 20 18 14 7 4 2 358 351 352 358 354 347 345
49 97 70 249 238 110 62 147 138 105 95 142 85 95 114 159 137 170 150 133 129 127 92 49 52 55 43 27 24 23 29 18 19 20 24 21 17 18 12 9 3 1 357 1 354 349 342 337 336
116 88 203 156 175 160 179 142 116 121 113 133 142 84 134 223 196 157 133 118 121 115 96 50 37 58 49 22 36 25 22 14 16 22 29 24 19 20 11 9 3 3 355 347 344 336 334 331 331
104 91 107 194 193 237 148 95 74 65 56 126 133 148 183 214 174 114 102 106 114 97 82 50 28 46 54 21 29 21 18 21 27 32 31 26 23 19 13 5 360 355 349 350 341 338 335 336 336
104 65 168 210 153 174 144 116 39 34 97 45 325 141 172 139 118 105 102 89 95 90 76 31 20 37 27 29 13 18 12 22 52 45 28 24 358 347 12 2 359 354 347 348 342 342 338 338 334
70 99 213 188 176 154 123 99 130 88 56 23 65 45 92 130 145 144 146 153 150 145 140 39 14 39 28 21 17 9 19 21 48 40 21 10 12 9 12 2 354 349 342 342 339 336 338 334 317
74 146 143 353 124 115 122 97 102 125 131 196 158 143 143 144 145 146 163 164 168 165 150 187 54 38 31 29 19 15 19 38 42 34 28 13 16 15 343 317 315 322 340 329 325 319 316 312 311
90 23 129 167 127 98 114 108 97 232 192 144 155 149 143 157 170 174 166 157 149 150 164 184 62 48 41 52 37 20 33 44 46 31 35 22 21 347 314 309 315 331 328 324 322 317 318 316 312
85 137 47 86 83 85 99 90 140 105 129 135 142 153 148 148 156 142 144 135 141 146 167 148 77 56 61 58 38 33 36 47 34 54 33 33 4 319 312 315 317 317 321 316 315 312 317 315 316
101 82 112 61 98 110 116 144 86 250 143 142 152 171 160 134 143 119 134 146 154 155 157 140 80 71 73 55 50 46 39 33 49 48 32 12 333 323 327 311 323 312 320 314 314 318 315 317 315
95 81 72 181 145 115 116 332 207 164 157 158 172 175 165 166 160 154 160 156 160 170 141 143 121 86 82 63 58 54 37 48 56 41 23 352 332 325 317 306 316 326 322 318 323 333 335 327 322
68 54 127 232 152 177 72 254 213 171 156 176 182 178 166 174 168 159 160 154 161 141 158 146 107 92 81 66 56 51 42 52 56 33 7 336 321 312 319 335 333 331 331 334 340 337 325 318 321
344 217 212 283 203 144 183 247 198 176 171 180 190 186 169 162 149 158 162 154 154 147 146 136 104 100 87 67 58 55 54 57 49 21 343 321 315 328 341 344 338 337 338 344 333 331 331 323 312
200 217 229 213 216 170 177 240 171 188 184 188 192 197 178 176 197 167 157 151 138 143 137 121 102 104 86 73 41 42 48 56 47 358 332 316 314 349 354 349 341 343 346 337 339 330 324 312 314
148 193 221 246 201 133 210 200 191 196 209 205 200 199 190 186 165 152 144 142 130 129 130 112 104 80 69 42 10 38 23 20 3 340 318 315 330 349 355 354 346 346 343 333 339 324 318 320 324
337 247 252 294 171 162 163 251 201 192 211 203 188 199 186 156 154 157 156 148 148 142 130 105 98 85 67 51 17 62 25 22 327 300 302 319 349 357 0 353 345 347 342 338 337 330 330 319 334
252 227 216 235 93 330 81 289 207 228 229 179 212 201 162 177 168 163 169 152 135 137 130 114 106 96 79 61 53 36 24 360 333 309 357 348 349 355 354 345 346 346 345 334 330 332 334 328 334
251 190 212 152 111 211 139 275 288 230 216 197 203 191 179 170 159 159 154 144 145 125 115 109 104 109 83 51 64 65 44 346 287 301 306 336 349 353 350 340 344 345 334 338 330 334 324 321 333
236 109 98 92 69 37 297 26 263 86 220 207 204 189 187 170 159 156 144 139 126 123 116 109 105 93 83 68 70 69 42 297 300 315 345 355 357 353 344 343 340 338 331 329 334 326 329 336 324
159 76 55 55 47 358 230 146 282 216 210 194 192 192 161 150 136 126 116 119 113 103 104 113 115 96 74 65 62 61 41 346 357 351 356 356 355 354 353 347 340 328 328 331 326 322 335 329 325
62 71 9 354 358 229 179 149 245 258 238 190 195 174 153 142 135 133 134 132 128 125 128 131 113 97 80 70 58 42 22 17 13 351 347 355 357 356 352 342 337 330 327 330 336 333 333 338 334
62 94 122 220 219 272 111 231 254 277 314 251 164 131 132 135 135 139 143 132 134 144 140 121 120 117 84 68 52 20 11 17 350 335 343 350 345 333 346 337 335 331 333 337 335 333 344 342 333
342 174 156 122 4 34 255 294 323 27 24 85 119 128 133 133 137 141 130 128 135 141 146 140 132 107 83 72 53 21 12 24 4 345 350 343 337 352 349 339 339 339 338 340 338 343 350 345 336
164 328 129 352 283 292 288 257 246 281 117 119 133 134 126 128 134 134 130 134 135 138 138 120 128 105 95 73 47 25 12 12 16 13 360 348 339 351 353 348 345 339 338 341 349 356 351 346 339
323 359 57 129 108 196 284 274 231 281 198 156 137 143 139 142 143 138 133 132 133 126 125 135 119 103 86 75 49 28 13 14 24 25 13 4 0 354 1 350 344 340 339 341 354 356 355 350 344
231 158 126 101 276 233 175 281 328 299 219 136 137 133 131 136 138 135 138 138 133 136 137 150 107 106 108 87 56 25 24 26 30 25 16 10 7 3 1 353 350 348 349 356 360 357 352 352 349